Location: Unspecified
(54.1780°N, 0.0000°E)
Time: 00:13:14
(UTC+00:00)

Altair - Pass Details

Date: 24 June 2019
Orbit: 1501 x 1683 km, 47.2° (Epoch: 19 July)

Event Time Altitude Azimuth Distance (km) Brightness Sun altitude
Rises 21:43:16 0° 257° (WSW) 4,741 10.3 -6.8°
Reaches altitude 10° 21:46:20 10° 253° (WSW) 3,781 9.8 -7.1°
Maximum altitude 21:55:42 59° 178° (S) 1,838 7.7 -7.8°
Drops below altitude 10° 22:05:26 10° 103° (ESE) 3,914 9.3 -8.4°
Sets 22:08:40 0° 100° (E) 4,916 9.8 -8.6°
